Weather in Novopokrovka

Russia / Tambov Oblast     52°08′05″N   40°52′42″E
temp.,
°C
wind,
m/s
gust,
m/s
humid.,
%
clouds,
%
prec.,
mm/h
press.,
hPa
HPBL,
m
27 february, sat
sat2700:00+1w61194100 0.0 1007345
03:00+1w7139399 0.0 1007383
06:00+1w6149165 0.0 1005541
09:00+1wnw7139582 0.1 1005754
12:00+1wnw8149897 0.1 1005737
15:000nw8149896 0.3 1006791
18:00−7nnw6128894 0.1 1009576
21:00−8nnw5119097 0.1 1012492
28 february, sun
sun2800:00−10nnw499360 0.0 1013367
03:00−10nw389333 0.0 1014278
06:00−11nw369549 0.0 1015219
09:00−9nw369463 0.1 1016283
12:00−7nw359097 0.0 1016428
15:00−6nw369099 0.1 1016467
18:00−6nnw239698 0.1 101658
21:00−8nne229597 0.1 101926
1 march, mon
mon100:00−9nne239695 0.0 102048
03:00−10n129575 0.1 102121
06:00−9nw119598 0.0 102221
09:00−7nnw129595 0.1 102595
12:00−5wnw228883 0.0 1025338
15:00−4wnw349090 0.0 1026450
18:00−4w379299 0.0 1025252
21:00−3wsw4993100 0.1 1024402
2 march, tue
tue200:00−3wsw61293100 0.1 1022424
03:00−3wsw71395100 0.2 1019461
06:00−2wsw81596100 0.5 1015596
09:000w81497100 1.0 1013657
12:00+1wnw81398100 0.5 1011788
15:00+1nw6119599 0.8 1011744
18:00−1nw5128856 0.1 1011365
21:00−1wnw6119476 0.2 1013532
3 march, wed
wed300:00−1nw61296100 0.4 1013643
03:00−3nw5129090 0.6 1013388
06:00−3nw6129563 0.1 1014523
09:00−2nw7119379 0.3 1015770
12:00−2nw71086100 0.2 1016884
15:00−1nw7108896 0.3 1017959
18:00−2nw61088100 0.1 1018678
21:00−2nw4990100 0.1 1019516